Regional Weather Roundup
Issued by NWS Little Rock, AR

Home | Current Version | Previous Version | Text Only | Print | Product List | Glossary Off
Versions: 1 2 3 4 5 6 7 8 9 10 11 12 13 14 15 16 17 18 19 20 21 22 23 24 25 26 27 28 29 30 31 32 33 34 35 36 37 38 39 40 41 42 43 44 45 46 47 48 49 50

000
ASUS44 KLZK 032205
RWRLZK

WEATHER ROUNDUP FOR ARKANSAS
NATIONAL WEATHER SERVICE LITTLE ROCK AR
500 PM CDT THU SEP 03 2015

NOTE: "FAIR" INDICATES FEW OR NO CLOUDS BELOW 12,000 FEET WITH NO
SIGNIFICANT WEATHER AND/OR OBSTRUCTIONS TO VISIBILITY.

ARZ001-003-010-029-032300-
NORTHWEST ARKANSAS

CITY           SKY/WX    TMP DP  RH WIND       PRES   REMARKS
FAYETTEVILLE   SUNNY     86  68  54 S9        29.97F HX  89
FORT SMITH     SUNNY     93  67  42 NE9       29.89F HX  96
HARRISON       PTSUNNY   87  68  52 SW6       29.97F HX  90
BENTONVILLE    MOSUNNY   88  64  45 SW8       29.98S HX  89
ROGERS         MOSUNNY   86  69  56 SE8       29.97F HX  90
SILOAM SPGS    MOSUNNY   88  66  48 S9        29.95S HX  90
HIGHFILL       SUNNY     88  68  51 S13       29.96F HX  91
SPRINGDALE     MOSUNNY   86  66  51 S7        29.99F HX  88
$$

ARZ004-005-016-032300-
NORTH CENTRAL ARKANSAS

CITY           SKY/WX    TMP DP  RH WIND       PRES   REMARKS
BATESVILLE     MOSUNNY   91  70  49 SE6       29.93F HX  97
FLIPPIN        MOSUNNY   90  63  40 S6        29.93S HX  90
MTN HOME       SUNNY     90  66  45 VRB5      29.94F HX  92
$$

ARZ040-041-032300-
WEST CENTRAL ARKANSAS

CITY           SKY/WX    TMP DP  RH WIND       PRES   REMARKS
MENA           SUNNY     95  63  34 CALM      29.94F HX  96
MOUNT IDA      MOSUNNY   93  62  35 VRB6      29.91F HX  93
$$

ARZ009-017-025-026-028-032300-
NORTHEAST ARKANSAS

CITY           SKY/WX    TMP DP  RH WIND       PRES   REMARKS
JONESBORO      PTSUNNY   89  69  51 VRB7      29.93F HX  93
NEWPORT        SUNNY     91  70  50 S5        29.94F HX  96
WALNUT RIDGE   SUNNY     91  66  43 S7        29.93S HX  94
BLYTHEVILLE    SUNNY     92  69  47 CALM      29.93F HX  97
$$

ARZ022-023-033-042-044-032300-
CENTRAL ARKANSAS

CITY           SKY/WX    TMP DP  RH WIND       PRES   REMARKS
LITTLE ROCK    MOSUNNY   94  67  41 SE5       29.91F HX  97
N LITTLE ROCK  MOSUNNY   92  68  45 SE2       29.91F HX  96
JACKSONVILLE   MOSUNNY   94  68  43 E8        29.91F HX  98
SEARCY         MOSUNNY   94  70  45 SE8       29.93F HX 100
HOT SPRINGS    MOSUNNY   91  66  43 SE7       29.92F HX  93
RUSSELLVILLE   MOSUNNY   93  66  40 E5        29.91F HX  96
$$

ARZ036-032300-
EAST ARKANSAS

CITY           SKY/WX    TMP DP  RH WIND       PRES   REMARKS
WEST MEMPHIS   SUNNY     91  69  48 W3        29.91F HX  96
$$

ARZ050-053-066-070-073-032300-
SOUTHWEST ARKANSAS

CITY           SKY/WX    TMP DP  RH WIND       PRES   REMARKS
ARKADELPHIA    FAIR      97  68  38 VRB5      29.91F HX 102
CAMDEN         SUNNY     93  64  38 SE6       29.90F HX  95
TEXARKANA      MOSUNNY   93  63  36 VRB5      29.91F HX  94
EL DORADO      CLOUDY    96  61  31 E7        29.90F HX  96
DE QUEEN       MOSUNNY   92  65  40 E7        29.88F HX  94
$$

ARZ056-057-069-032300-
SOUTHEAST ARKANSAS

CITY           SKY/WX    TMP DP  RH WIND       PRES   REMARKS
PINE BLUFF     MOSUNNY   90  71  53 E5        29.91F HX  96
STUTTGART      SUNNY     91  66  43 NE8       29.92F HX  94
MONTICELLO     SUNNY     95  68  41 VRB5      29.90F HX  99

$$




USA.gov is the U.S. government's official web portal to all federal, state and local government web resources and services.